星链-35073 (STARLINK-35073)

导读 | 豆包AI

STARLINK-35073是美国太空探索技术公司(SpaceX)于2025年8月30日发射的星链(Starlink)低轨卫星,隶属于Starlink第二代星座组网任务,属于SpaceX推进全球卫星互联网覆盖的组网卫星之一,运行于近地轨道,将为全球偏远、基础设施缺失地区提供高速低延迟宽带互联网服务,帮助星链进一步完善星座容量与覆盖能力,支撑海事、航空等移动场景及应急通信服务拓展,推进星链商业化落地。

基本信息
目录编号:
65385
目录名称:
STARLINK-35073
国际标识:
2025-191G
轨道中心:
EARTH
卫星名称:
星链-35073
卫星全名:
星链-35073 (STARLINK-35073)
卫星状态:
在轨 (已飞行217 天)
发射日期:
2025-08-30 UTC
国别 :
美国 (US)
星等 :
--
轨道信息
数据来源 国际轨道数据 AOE轨道数据
星历时间 2026-04-03T23:16:30+0800
20小时前
查看轨道信息
2026-04-02T10:00:00+0800
2天前
查看轨道信息
半长轴 6927.629km 6927.648km
偏心率 0.0002584 0.0002325
轨道倾角 97.604° 97.602°
近地点辐角 89.255° 91.973°
升交点赤经 326.121° 324.590°
平近点角 270.898° 134.977°
近地点 547.701km 547.9km
远地点 551.283km 551.122km
周期 95.639分钟 95.640分钟
每日圈数 15.056565 15.056501
详细信息
固有亮度:
5
最大亮度:
2.5
卫星平台:
Starlink V1.0
覆盖范围:
全球
运营商:
太空探索技术公司
运营商所在国:
美国
制造商(研发单位):
太空探索技术公司
制造商所在国:
美国
使用方式:
暂无
卫星简介
Starlink 计划是 SpaceX 推出的全球卫星互联网项目,通过发射低轨道卫星,为全球尤其是偏远地区提供高速、低延迟的互联网服务。自 2019 年起,Starlink 已部署数千颗卫星,旨在缩小全球数字鸿沟,推动互联网普及。该项目还为军事、航空等行业提供通信支持,带来广泛经济效益。
2D轨道图
3D轨道图
轨道高度分析图
轨道倾角分析图
轨道综合分析图
查看轨道综合分析图